Flag for Spain Weather past 2 weeks in Linares, Spain

57 °F

Passing clouds.

Feels Like: 57 °F
Forecast: 55 / 72 °F
Wind: No wind

Location: Granada / Aeropuerto

Current Time: Oct 13, 2015 at 10:23:08 AM

Latest Report: Oct 13, 2015 at 10:00 AM

Visibility: N/A

Pressure: 29.98 "Hg

Humidity: 88%

Dew point: 54 °F

Location of LinaresLocation

Historic Weather in Linares — Graph


Linares temperature yesterday

Maximum temperature yesterday: 73 °F (at 3:30 PM)
Minimum temperature yesterday: 59 °F (at 7:00 AM)
Average temperature yesterday: 65 °F

Past Weeks' High & Low Weather Summary

High84 °F (Oct 4, 3:30 PM)100% (Sep 30, 6:30 AM)30.27 "Hg (Sep 30, 6:30 AM)
Low48 °F (Oct 10, 7:00 AM)21% (Oct 3, 3:30 PM)29.83 "Hg (Oct 10, 4:00 PM)
Average67 °F65%30.05 "Hg
* Reported Sep 28 9:00 AM — Oct 13 9:00 AM, Linares, Weather by CustomWeather, © 2015

Note: Actual official high and low records may vary slightly from our data, if they occured in-between our weather recording intervals... More about our weather records


Linares weather history for previous 24 hours

Time TempWeatherWind HumidityBarometerVisibility
9:00 AM
Tue, Oct 13
50 °FPassing clouds.1 mph100%29.95 "HgN/A
8:30 AM50 °FPassing clouds.No wind100%29.95 "HgN/A
8:00 AM50 °FPassing clouds.No wind100%29.95 "HgN/A
7:30 AM50 °FPassing clouds.No wind100%29.95 "HgN/A
7:00 AM52 °FPassing clouds.1 mph94%29.95 "HgN/A
11:00 PM
Mon, Oct 12
61 °FPassing clouds.1 mph83%29.95 "HgN/A
10:30 PM63 °FPartly cloudy.2 mph83%29.95 "HgN/A
10:00 PM64 °FPassing clouds.No wind78%29.95 "HgN/A
9:30 PM64 °FPassing clouds.1 mph78%29.95 "HgN/A
9:00 PM64 °FPassing clouds.1 mph78%29.95 "HgN/A
8:30 PM66 °FPartly sunny.No wind73%29.92 "HgN/A
8:00 PM66 °FPartly sunny.No wind73%29.92 "HgN/A
7:30 PM68 °FPartly sunny.3 mph69%29.92 "HgN/A
7:00 PM68 °FPartly sunny.8 mph69%29.92 "HgN/A
6:30 PM70 °FPartly sunny.9 mph64%29.89 "HgN/A
6:00 PM68 °FPartly sunny.5 mph69%29.89 "HgN/A
5:30 PM70 °FBroken clouds.9 mph64%29.89 "HgN/A
5:00 PM72 °FBroken clouds.10 mph57%29.89 "HgN/A
4:30 PM72 °FBroken clouds.12 mph53%29.89 "HgN/A
4:00 PM72 °FBroken clouds.8 mph53%29.89 "HgN/A
3:30 PM73 °FBroken clouds.10 mph50%29.89 "HgN/A
3:00 PM70 °FBroken clouds.13 mph60%29.89 "HgN/A
2:30 PM70 °FBroken clouds.14 mph60%29.92 "HgN/A
2:00 PM70 °FBroken clouds.15 mph60%29.92 "HgN/A
1:30 PM68 °FBroken clouds.10 mph69%29.92 "HgN/A
1:00 PM68 °FBroken clouds.10 mph73%29.92 "HgN/A
12:30 PM66 °FBroken clouds.1 mph88%29.92 "HgN/A
12:00 PM63 °FLight rain. Broken clouds.No wind100%29.95 "Hg5 mi
11:54 AM63 °FLight rain. Broken clouds.No wind100%29.95 "Hg5 mi
11:30 AM63 °FLight rain. Broken clouds.No wind94%29.92 "Hg3 mi
11:00 AM61 °FBroken clouds.2 mph100%29.92 "HgN/A
10:30 AM61 °FDrizzle. Partly sunny.No wind100%29.92 "Hg4 mi
10:00 AM61 °FPartly sunny.3 mph94%29.92 "Hg6 mi
Weather by CustomWeather, © 2015

See weather overviewHow to use our weather pages